Flag for Germany Weather past 2 weeks in Friesoythe, Lower Saxony, Germany

Now
37 °F

Chilly.


Feels Like: 31 °F
Forecast: 37 / 42 °F
Wind: 8 mph from Southwest

Location: Meppen-Mil

Current Time: Jan 26, 2015 at 5:34:29 AM

Latest Report: Jan 26, 2015 at 4:20 AM


Visibility: 1 mi

Pressure: 30.15 "Hg

Humidity: 93%

Dew point: 36 °F

Location of FriesoytheLocation

Historic Weather in Friesoythe — Graph

°F

Friesoythe temperature yesterday

Maximum temperature yesterday: 39 °F (at 12:20 PM)
Minimum temperature yesterday: 30 °F (at 1:20 AM)
Average temperature yesterday: 36 °F

Past Weeks' High & Low Weather Summary

 TemperatureHumidityPressure
High50 °F (Jan 12, 6:20 PM)100% (Jan 17, 5:20 AM)30.33 "Hg (Jan 17, 5:20 AM)
Low23 °F (Jan 21, 8:20 AM)62% (Jan 15, 11:20 PM)29.33 "Hg (Jan 15, 2:20 PM)
Average36 °F87%29.89 "Hg
* Reported Jan 11 3:20 AM — Jan 26 3:20 AM, Friesoythe, Weather by CustomWeather, © 2014

Note: Actual official high and low records may vary slightly from our data, if they occured in-between our weather recording intervals... More about our weather records

Advertising

Friesoythe weather history for previous 24 hours

 ConditionsComfort  
Time TempWeatherWind HumidityBarometerVisibility
3:20 AM
Jan 26
37 °FChilly.7 mph93%30.18 "Hg2 mi
2:20 AM37 °FChilly.7 mph93%30.21 "Hg1 mi
1:20 AM37 °FChilly.7 mph93%30.24 "Hg1 mi
12:20 AM37 °FChilly.6 mph93%30.24 "Hg1 mi
11:20 PM
Jan 25
37 °FChilly.6 mph93%30.27 "Hg1 mi
10:20 PM37 °FChilly.5 mph93%30.27 "Hg1 mi
9:20 PM37 °FChilly.5 mph93%30.30 "Hg1 mi
8:20 PM37 °FChilly.6 mph93%30.30 "Hg0 mi
7:20 PM37 °FChilly.6 mph93%30.30 "Hg0 mi
6:20 PM37 °FChilly.5 mph93%30.30 "Hg1 mi
5:20 PM37 °FChilly.3 mph93%30.33 "Hg2 mi
4:20 PM37 °FChilly.6 mph93%30.30 "Hg4 mi
3:20 PM39 °FChilly.6 mph87%30.30 "Hg4 mi
2:20 PM39 °FChilly.6 mph87%30.30 "Hg4 mi
1:20 PM39 °FChilly.6 mph87%30.33 "Hg4 mi
12:20 PM39 °FChilly.6 mph87%30.33 "Hg4 mi
11:20 AM37 °FChilly.7 mph93%30.33 "Hg4 mi
10:20 AM36 °FChilly.7 mph93%30.33 "Hg4 mi
9:20 AM36 °FChilly.7 mph93%30.33 "Hg4 mi
8:20 AM34 °FChilly.6 mph100%30.33 "Hg4 mi
7:20 AM34 °FChilly.6 mph93%30.33 "Hg4 mi
6:20 AM32 °FChilly.7 mph100%30.30 "Hg4 mi
5:20 AM32 °FChilly.6 mph100%30.30 "Hg4 mi
Weather by CustomWeather, © 2014

See weather overviewHow to use our weather pages